sat.trackr.live / text

‹ back to catalog

COSMOS 2391

NORAD 27465 · 2002-036B

PAYLOAD ACTIVE UNKNOWN

§ Identity

Operator
Country
CIS
Launch date
2002-07-08
Launch site
PLMSC
Launch vehicle
Mass (kg)
RCS (m²)
0.88

External: N2YO · Heavens-Above · Gunter

§ Orbital elements

Epoch: 2026-05-25T03:42:47.820960Z

Period
115.67 min
Inclination
82.4854°
Eccentricity
0.0025698
Mean motion
12.44945558 rev/d
Perigee alt
1,465.5 km
Apogee alt
1,505.9 km
Semi-major
7,863.8 km
B*
-6.8911e-5
RAAN
355.9029°
Arg perigee
304.6989°
Mean anomaly
55.1671°
Rev number
8,498

§ Raw data

COSMOS 23911 27465U 02036B   26145.15472015  .00000000  00000+0 -68911-4 0  99972 27465  82.4854 355.9029 0025698 304.6989  55.1671 12.44945558 84980

JSON: /api/v1/satellites/27465 · /tle

For live sub-satellite position, see the globe view (requires WebGL).

§ Visibility from observer

Set your observer location to see the next 7 days of passes ≥ 10°. The values pass through the URL so the page stays shareable.

No JS? Fill the form by hand. The geolocation button needs JavaScript.